Tracking 35331 objects as of 16-Sep-2026
HD Live streaming from Space Station
objects crossing your sky now

STARLINK-32750

Track STARLINK-32750 now!
10-day predictions
STARLINK-32750 is classified as:


NORAD ID: 62572
Int'l Code: 2025-006U
Launch date: January 10, 2025
Source: United States (US)
Launch site: AIR FORCE EASTERN TEST RANGE (AFETR)
Your satellite tracking list
Your tracking list is empty




NASA's NSSDC Master Catalog

Two Line Element Set (TLE):
1 62572U 25006U   26259.13736337  .00016026  00000-0  59047-3 0  9995
2 62572  42.9963 296.6347 0000422 322.7615  37.3207 15.27587668 93995
Source of the keplerian elements: AFSPC